Newport, RI

4:51 AM EDT on April 29, 2017 (GMT -0400)
Newport State

Weather History for KUUU - December, 2013

Change the Weather History Date:

Monday, December 16, 2013

  Actual Average Record
Temperature  
Mean Temperature 26 °F -  
Max Temperature 30 °F 43 °F 63 °F (1971)
Min Temperature 21 °F 29 °F 10 °F (2016)
Degree Days  
Heating Degree Days 38    
Moisture  
Dew Point 11 °F    
Average Humidity 51    
Maximum Humidity 67    
Minimum Humidity 38    
Precipitation  
Precipitation 0.00 in - - ()
Sea Level Pressure  
Sea Level Pressure 30.00 in    
Wind  
Wind Speed 10 mph (WNW)    
Max Wind Speed 20 mph    
Max Gust Speed 29 mph    
Visibility 10 miles    
Events      
Averages and records for this station are not official NWS values.
T = Trace of Precipitation, MM = Missing Value Source: NWS Daily Summary

Daily Weather History Graph

Daily Weather History Graph

Search for Another Location

Airport or City:

Trip Planner

Search our weather history database for the weather conditions in past years. The results will help you decide how hot, cold, wet, or windy it might be!

Date:

Astronomy

Dec. 16, 2013 Rise Set
Actual Time 7:05 AM EST 4:16 PM EST
Civil Twilight 6:33 AM EST 4:47 PM EST
Nautical Twilight 5:59 AM EST 5:22 PM EST
Astronomical Twilight 5:25 AM EST 5:56 PM EST
Moon 4:05 PM EST (12/16) 6:10 AM EST (12/16)
Length of Visible Light 10h 13m
Length of Day
9h 10m
Full, 100% of the Moon is Illuminated
Dec 16
Full
Dec 17
Full
Dec 25
Last Quarter
Jan 1
New
Jan 7
First Quarter

Hourly Weather History & Observations

Time (EST) Temp. Windchill Dew Point Humidity Pressure Visibility Wind Dir Wind Speed Gust Speed Precip Events Conditions
12:53 AM 30.9 °F 24.3 °F 19.9 °F 64% 29.77 in 10.0 mi West 6.9 mph - N/A   Clear
1:53 AM 30.9 °F 24.3 °F 21.0 °F 67% 29.78 in 10.0 mi West 6.9 mph - N/A   Overcast
2:53 AM 30.0 °F 25.2 °F 19.9 °F 66% 29.80 in 10.0 mi Variable 4.6 mph - N/A   Clear
3:53 AM 30.0 °F 23.2 °F 19.9 °F 66% 29.81 in 10.0 mi West 6.9 mph - N/A   Clear
4:53 AM 30.0 °F 22.4 °F 19.0 °F 64% 29.83 in 10.0 mi West 8.1 mph 16.1 mph N/A   Clear
5:53 AM 30.0 °F 21.1 °F 19.0 °F 64% 29.85 in 10.0 mi West 10.4 mph 19.6 mph N/A   Scattered Clouds
6:53 AM 28.0 °F 15.7 °F 15.1 °F 58% 29.90 in 10.0 mi WNW 17.3 mph 28.8 mph N/A   Overcast
7:53 AM 27.0 °F 14.7 °F 12.0 °F 53% 29.94 in 10.0 mi WNW 16.1 mph 25.3 mph N/A   Overcast
8:53 AM 27.0 °F 13.9 °F 10.0 °F 49% 29.96 in 10.0 mi WNW 18.4 mph 27.6 mph N/A   Clear
9:53 AM 26.1 °F 12.3 °F 9.0 °F 49% 29.98 in 10.0 mi WNW 19.6 mph 25.3 mph N/A   Clear
10:53 AM 26.1 °F 14.5 °F 8.1 °F 47% 29.98 in 10.0 mi WNW 13.8 mph 23.0 mph N/A   Clear
11:53 AM 28.0 °F 18.1 °F 9.0 °F 45% 29.98 in 10.0 mi WNW 11.5 mph 25.3 mph N/A   Clear
12:53 PM 28.9 °F 18.6 °F 8.1 °F 41% 29.98 in 10.0 mi WNW 12.7 mph 20.7 mph N/A   Clear
1:53 PM 28.0 °F 19.3 °F 8.1 °F 43% 29.99 in 10.0 mi WNW 9.2 mph - N/A   Partly Cloudy
2:53 PM 28.9 °F 19.2 °F 6.1 °F 38% 30.01 in 10.0 mi NW 11.5 mph 18.4 mph N/A   Clear
3:53 PM 28.0 °F 18.1 °F 6.1 °F 39% 30.05 in 10.0 mi NW 11.5 mph 18.4 mph N/A   Clear
4:53 PM 27.0 °F 18.0 °F 5.0 °F 39% 30.08 in 10.0 mi West 9.2 mph - N/A   Clear
5:53 PM 26.1 °F 18.4 °F 6.1 °F 43% 30.11 in 10.0 mi West 6.9 mph - N/A   Clear
6:53 PM 26.1 °F 17.6 °F 6.1 °F 43% 30.14 in 10.0 mi WNW 8.1 mph - N/A   Clear
7:53 PM 25.0 °F 16.3 °F 6.1 °F 45% 30.17 in 10.0 mi WNW 8.1 mph - N/A   Clear
8:53 PM 25.0 °F 17.1 °F 7.0 °F 46% 30.18 in 10.0 mi West 6.9 mph - N/A   Clear
9:53 PM 23.0 °F 13.1 °F 9.0 °F 55% 30.20 in 10.0 mi WNW 9.2 mph - N/A   Clear
10:53 PM 23.0 °F 12.4 °F 7.0 °F 50% 30.21 in 10.0 mi WNW 10.4 mph - N/A   Clear
11:53 PM 21.9 °F 12.5 °F 8.1 °F 55% 30.22 in 10.0 mi NW 8.1 mph - N/A   Clear